Location: Chavenne
(46.6022°N, 3.2951°E)
Time: 03:30:28
(UTC+00:00)

USA 234 - Pass Details

Date: 09 April 2020
Orbit: 1102 x 1106 km, 123.0° (Epoch: 14 May)

Event Time Altitude Azimuth Distance (km) Brightness Sun altitude
Rises 23:18:11 0° 58° (ENE) 3,924 6.4 -35.0°
Reaches altitude 10° 23:20:47 10° 52° (NE) 2,966 5.8 -35.0°
Maximum altitude 23:26:53 44° 343° (NNW) 1,492 4.2 -35.2°
Drops below altitude 10° 23:32:59 10° 274° (W) 2,962 5.6 -35.3°
Sets 23:35:34 0° 268° (W) 3,920 6.2 -35.3°
